KC4LW Weather Reports


Display with metric or nautical units.
time (UTC)temp
F
wind
direction
speed
MPH
gust
MPH
rain 1hr
in
rain 24hr
in
rain mn
in
humidity
%
barometer
mb
20260904030107 79 0 0.0 2.0 0.00 0.00 0.00 97 1014.3
20260904024601 79 89 1.0 3.0 0.00 0.00 0.00 97 1014.2
20260904023058 79 0 0.0 3.0 0.00 0.00 0.00 97 1014.3
20260904021604 78 0 0.0 1.0 0.00 0.00 0.00 96 1014.2
20260904020059 79 0 0.0 1.0 0.00 0.00 0.00 96 1014.1
20260904014612 79 0 0.0 0.0 0.00 0.00 0.00 96 1014.1
20260904013106 79 0 0.0 0.0 0.00 0.00 0.00 95 1014.1
20260904011603 79 0 0.0 2.0 0.00 0.00 0.00 95 1014.1
20260904010100 79 0 0.0 0.0 0.00 0.00 0.00 94 1013.9
20260904004604 79 0 0.0 0.0 0.00 0.00 0.00 93 1013.6
20260904003057 79 0 0.0 1.0 0.00 0.00 0.00 93 1013.8
20260904001601 80 0 0.0 1.0 0.00 0.00 0.00 92 1013.8
20260903234619 80 0 0.0 4.0 0.00 0.00 0.00 91 1013.6
20260903233103 81 0 0.0 3.0 0.00 0.00 0.00 92 1013.7
20260903231604 81 97 0.0 4.0 0.00 0.00 0.00 91 1013.3
20260903230107 82 94 0.0 3.0 0.00 0.00 0.00 91 1013.4
20260903224601 82 0 0.0 3.0 0.00 0.00 0.00 90 1013.0
20260903223104 82 107 1.0 4.0 0.00 0.00 0.00 89 1012.9
20260903221601 82 0 0.0 3.0 0.00 0.00 0.00 89 1012.7
20260903220120 82 0 0.0 3.0 0.00 0.00 0.00 89 1012.6
20260903214601 82 126 0.0 3.0 0.00 0.00 0.00 89 1012.8
20260903213112 82 105 1.0 6.0 0.00 0.00 0.00 88 1012.6
20260903211603 82 74 1.0 5.0 0.00 0.00 0.00 87 1012.5
20260903210115 82 125 1.0 7.0 0.00 0.00 0.00 86 1012.7
20260903204559 82 0 1.0 6.0 0.00 0.00 0.00 87 1012.9
20260903203058 82 117 0.0 6.0 0.00 0.00 0.00 89 1013.3
20260903201559 82 73 1.0 8.0 0.00 0.00 0.00 88 1013.3
20260903200056 83 77 1.0 7.0 0.00 0.00 0.00 89 1013.5
20260903194600 83 101 3.0 10.0 0.00 0.00 0.00 89 1013.8
20260903193101 84 63 2.0 8.0 0.00 0.00 0.00 88 1014.0
20260903191559 84 87 3.0 9.0 0.00 0.00 0.00 86 1013.7
20260903190056 84 0 2.0 8.0 0.00 0.00 0.00 89 1014.0
20260903184602 83 0 2.0 8.0 0.00 0.00 0.00 90 1014.0
20260903183100 81 71 2.0 8.0 0.00 0.00 0.00 94 1014.0
20260903181555 80 0 2.0 8.0 0.00 0.00 0.00 96 1014.4
20260903180104 80 73 2.0 6.0 0.00 0.00 0.00 97 1014.6
20260903174600 80 82 1.0 7.0 0.00 0.00 0.00 98 1014.7
20260903173058 80 0 0.0 3.0 0.00 0.00 0.00 98 1014.9
20260903171618 79 0 0.0 7.0 0.00 0.00 0.00 97 1015.2
20260903170104 79 0 0.0 4.0 0.00 0.00 0.00 96 1015.3
20260903164608 80 0 0.0 3.0 0.00 0.00 0.00 96 1015.5
20260903163107 80 0 0.0 2.0 0.00 0.00 0.00 95 1015.4
20260903161605 80 94 0.0 3.0 0.00 0.00 0.00 93 1015.7
20260903160110 83 120 5.0 18.0 0.00 0.00 0.00 88 1015.8
20260903154603 85 108 2.0 9.0 0.00 0.00 0.00 85 1015.8
20260903153103 86 93 1.0 8.0 0.00 0.00 0.00 80 1015.8
20260903151603 87 88 2.0 13.0 0.00 0.00 0.00 82 1015.6
20260903150059 87 16 2.0 9.0 0.00 0.00 0.00 84 1015.4
20260903144557 87 38 1.0 11.0 0.00 0.00 0.00 84 1015.3
20260903143111 86 54 2.0 9.0 0.00 0.00 0.00 83 1015.1
20260903141604 86 52 2.0 9.0 0.00 0.00 0.00 85 1015.0
20260903140059 86 138 2.0 10.0 0.00 0.00 0.00 85 1015.1
20260903134557 86 119 1.0 8.0 0.00 0.00 0.00 88 1015.0
20260903133111 85 101 2.0 9.0 0.00 0.00 0.00 88 1015.2
20260903131611 84 0 1.0 5.0 0.00 0.00 0.00 92 1015.1
20260903130119 82 89 0.0 6.0 0.00 0.00 0.00 96 1015.1
20260903124600 81 0 0.0 4.0 0.00 0.00 0.00 99 1015.2
20260903123103 80 0 0.0 6.0 0.00 0.00 0.00 100 1015.2
20260903121601 80 0 0.0 1.0 0.00 0.00 0.00 100 1015.1
20260903120058 79 0 0.0 1.0 0.00 0.00 0.00 99 1014.9
20260903114602 78 0 0.0 0.0 0.00 0.00 0.00 99 1014.6
20260903113117 78 0 0.0 0.0 0.00 0.00 0.00 99 1014.3
20260903111605 78 0 0.0 0.0 0.00 0.00 0.00 99 1013.9
20260903110100 78 0 0.0 1.0 0.00 0.00 0.00 99 1013.9
20260903104600 78 0 0.0 2.0 0.00 0.00 0.00 99 1013.9
20260903103057 78 0 0.0 3.0 0.00 0.00 0.00 99 1013.6
20260903101604 79 0 1.0 2.0 0.00 0.00 0.00 99 1013.5
20260903094610 78 0 0.0 0.0 0.00 0.00 0.00 99 1013.3
20260903093112 78 0 0.0 0.0 0.00 0.00 0.00 99 1013.5
20260903091557 78 0 0.0 0.0 0.00 0.00 0.00 98 1013.3
20260903084558 78 0 0.0 0.0 0.00 0.00 0.00 98 1013.5
20260903083101 78 0 0.0 0.0 0.00 0.00 0.00 98 1013.4
20260903081558 79 0 0.0 1.0 0.00 0.00 0.00 98 1013.3
20260903074555 79 0 0.0 0.0 0.00 0.00 0.00 97 1013.7
20260903073057 79 0 0.0 0.0 0.00 0.00 0.00 97 1013.6
20260903071601 79 0 0.0 1.0 0.00 0.00 0.00 97 1013.9
20260903064555 80 0 0.0 0.0 0.00 0.00 0.00 97 1013.9
20260903063101 80 0 0.0 3.0 0.00 0.00 0.00 97 1014.0
20260903061607 80 0 0.0 0.0 0.00 0.00 0.00 96 1014.2
20260903060100 80 0 0.0 2.0 0.00 0.00 0.00 96 1014.4
20260903054559 80 0 0.0 3.0 0.00 0.00 0.00 96 1014.5
20260903053101 80 0 0.0 3.0 0.00 0.00 0.00 96 1014.8
20260903051604 80 0 0.0 3.0 0.00 0.00 0.00 96 1015.0
20260903050105 80 78 0.0 2.0 0.00 0.00 0.00 96 1014.9
20260903044601 79 0 0.0 2.0 0.00 0.00 0.00 96 1015.0
20260903043103 80 0 0.0 1.0 0.00 0.00 0.00 96 1015.1
20260903041616 80 0 0.0 3.0 0.00 0.00 0.00 97 1015.0
20260903040104 80 0 0.0 0.0 0.00 0.00 0.00 97 1015.0
20260903034603 80 0 0.0 0.0 0.00 0.00 0.00 96 1015.1
20260903033057 80 0 0.0 0.0 0.00 0.00 0.00 96 1015.2
20260903031602 80 0 0.0 1.0 0.00 0.00 0.00 96 1015.0